DW7394 Weather Reports


time (UTC)temp
C
wind
direction
speed
KPH
gust
KPH
rain 1hr
cm
rain 24hr
cm
rain mn
cm
humidity
%
barometer
mb
20260508075032 7 224 11.3 35.4 0.00 0.00 0.00 72 1012.0
20260508074530 8 214 9.7 35.4 0.00 0.00 0.00 72 1012.0
20260508074029 8 213 16.1 35.4 0.00 0.00 0.00 72 1012.0
20260508073528 8 213 12.9 29.0 0.00 0.00 0.00 71 1012.0
20260508073033 8 221 9.7 32.2 0.00 0.00 0.00 71 1012.1
20260508072527 8 205 12.9 37.0 0.00 0.00 0.00 70 1012.1
20260508072026 8 199 17.7 37.0 0.00 0.00 0.00 70 1012.1
20260508071532 8 223 11.3 30.6 0.00 0.00 0.00 70 1012.1
20260508071027 8 210 12.9 37.0 0.00 0.00 0.00 69 1012.1
20260508070526 8 264 17.7 37.0 0.00 0.00 0.00 69 1012.1
20260508070024 8 255 16.1 35.4 0.00 0.00 0.00 69 1012.1
20260508065522 8 233 19.3 35.4 0.00 0.00 0.00 68 1012.1
20260508065022 8 211 9.7 22.5 0.00 0.00 0.00 68 1012.0
20260508064531 8 214 9.7 27.4 0.00 0.00 0.00 68 1012.0
20260508064022 8 227 12.9 27.4 0.00 0.00 0.00 67 1012.0
20260508063522 8 232 11.3 24.1 0.00 0.00 0.00 67 1012.0
20260508063020 8 220 11.3 24.1 0.00 0.00 0.00 67 1012.1
20260508062523 8 227 8.0 17.7 0.00 0.00 0.00 68 1012.2
20260508062019 8 233 6.4 17.7 0.00 0.00 0.00 67 1012.2
20260508061519 8 195 8.0 19.3 0.00 0.00 0.00 68 1012.2
20260508061019 8 218 11.3 19.3 0.00 0.00 0.00 68 1012.2
20260508060523 8 218 6.4 19.3 0.00 0.00 0.00 68 1012.3
20260508060019 8 222 9.7 19.3 0.00 0.00 0.00 68 1012.3
20260508055517 8 222 9.7 19.3 0.00 0.00 0.00 68 1012.3
20260508055016 8 192 8.0 14.5 0.00 0.00 0.00 68 1012.4
20260508054516 8 248 6.4 14.5 0.00 0.00 0.00 68 1012.5
20260508054016 8 233 8.0 16.1 0.00 0.00 0.00 68 1012.5
20260508053514 8 250 8.0 17.7 0.00 0.00 0.00 68 1012.6
20260508053014 8 236 4.8 17.7 0.00 0.00 0.00 68 1012.6
20260508052513 8 195 8.0 17.7 0.00 0.00 0.00 68 1012.7
20260508052018 8 218 4.8 16.1 0.00 0.00 0.00 68 1012.7
20260508051512 7 214 8.0 16.1 0.00 0.00 0.00 68 1012.8
20260508051011 7 203 8.0 14.5 0.00 0.00 0.00 68 1012.8
20260508050511 7 224 6.4 12.9 0.00 0.00 0.00 68 1012.8
20260508050013 7 224 6.4 12.9 0.00 0.00 0.00 68 1012.8
20260508045510 7 290 6.4 12.9 0.00 0.00 0.00 68 1012.8
20260508045010 7 204 6.4 14.5 0.00 0.00 0.00 68 1012.9
20260508044510 8 221 8.0 19.3 0.00 0.00 0.00 68 1012.9
20260508044009 7 208 8.0 19.3 0.00 0.00 0.00 68 1012.9
20260508043509 7 254 8.0 22.5 0.00 0.00 0.00 68 1012.9
20260508043008 7 208 9.7 22.5 0.00 0.00 0.00 68 1012.9
20260508042507 7 229 6.4 20.9 0.00 0.00 0.00 68 1012.9
20260508042011 7 224 9.7 20.9 0.00 0.00 0.00 67 1012.9
20260508041509 7 216 6.4 19.3 0.00 0.00 0.00 67 1012.9
20260508041004 7 222 11.3 19.3 0.00 0.00 0.00 67 1012.8
20260508040502 7 236 8.0 16.1 0.00 0.00 0.00 66 1012.8
20260508040001 7 190 4.8 19.3 0.00 0.00 0.00 66 1012.8
20260508035502 7 179 11.3 19.3 0.00 0.00 0.00 66 1012.9
20260508035001 7 224 9.7 19.3 0.00 0.00 0.00 66 1013.0
20260508034500 7 253 9.7 19.3 0.00 0.00 0.00 66 1013.0
20260508034001 7 208 8.0 20.9 0.00 0.00 0.00 66 1013.0
20260508033501 7 202 11.3 20.9 0.00 0.00 0.00 65 1013.0
20260508033107 7 211 9.7 20.9 0.00 0.00 0.00 65 1013.0
20260508032600 6 209 9.7 20.9 0.00 0.00 0.00 65 1013.0
20260508032502 6 239 9.7 20.9 0.00 0.00 0.00 65 1013.0
20260508032059 6 221 8.0 16.1 0.00 0.00 0.00 65 1013.0
20260508031606 6 197 6.4 14.5 0.00 0.00 0.00 65 1012.9
20260508031059 6 218 4.8 12.9 0.00 0.00 0.00 65 1013.0
20260508030559 6 223 4.8 12.9 0.00 0.00 0.00 66 1012.9
20260508030502 6 218 4.8 12.9 0.00 0.00 0.00 66 1012.9
20260508030111 6 173 3.2 9.7 0.00 0.00 0.00 65 1012.9
20260508025558 6 173 4.8 11.3 0.00 0.00 0.00 66 1012.9
20260508025058 6 209 4.8 11.3 0.00 0.00 0.00 66 1013.0
20260508024603 6 220 4.8 11.3 0.00 0.00 0.00 66 1013.0
20260508024058 6 213 4.8 8.0 0.00 0.00 0.00 66 1012.9
20260508023601 6 215 3.2 6.4 0.00 0.00 0.00 66 1012.8
20260508023059 6 164 3.2 6.4 0.00 0.00 0.00 66 1012.8
20260508022558 6 173 1.6 6.4 0.00 0.00 0.00 65 1012.9
20260508022058 6 205 1.6 6.4 0.00 0.00 0.00 65 1012.8
20260508021558 6 214 3.2 6.4 0.00 0.00 0.00 65 1012.9
20260508021058 6 204 3.2 6.4 0.00 0.00 0.00 64 1012.9
20260508020557 6 192 3.2 6.4 0.00 0.00 0.00 64 1012.8
20260508020106 7 208 3.2 4.8 0.00 0.00 0.00 64 1012.8
20260508015556 7 196 1.6 4.8 0.00 0.00 0.00 63 1012.8
20260508015056 7 218 3.2 6.4 0.00 0.00 0.00 62 1012.8
20260508014556 7 224 3.2 6.4 0.00 0.00 0.00 61 1012.8
20260508014059 7 204 3.2 6.4 0.00 0.00 0.00 61 1012.7
20260508013555 7 196 3.2 6.4 0.00 0.00 0.00 60 1012.6
20260508013056 8 196 3.2 6.4 0.00 0.00 0.00 59 1012.6
20260508012557 8 197 3.2 6.4 0.00 0.00 0.00 58 1012.5
20260508012057 8 173 1.6 6.4 0.00 0.00 0.00 58 1012.6
20260508011555 8 185 3.2 6.4 0.00 0.00 0.00 57 1012.5
20260508011054 8 214 3.2 6.4 0.00 0.00 0.00 56 1012.5
20260508010554 9 214 3.2 6.4 0.00 0.00 0.00 55 1012.5
20260508005558 9 218 0.0 8.0 0.00 0.00 0.00 53 1012.5
20260508005055 10 355 0.0 8.0 0.00 0.00 0.00 53 1012.4
20260508004553 10 229 1.6 6.4 0.00 0.00 0.00 52 1012.5
20260508004053 10 84 1.6 8.0 0.00 0.00 0.00 52 1012.5
20260508003553 10 247 1.6 8.0 0.00 0.00 0.00 51 1012.4
20260508003102 10 264 0.0 17.7 0.00 0.00 0.00 51 1012.5
20260508002553 10 301 1.6 17.7 0.00 0.00 0.00 50 1012.4
20260508002053 10 218 4.8 0.0 0.00 0.00 0.00 49 1012.4
20260508001556 10 339 3.2 14.5 0.00 0.00 0.00 49 1012.3
20260508001052 10 319 4.8 14.5 0.00 0.00 0.00 49 1012.3
20260508000551 11 317 1.6 14.5 0.00 0.00 0.00 49 1012.3
20260508000052 11 264 1.6 16.1 0.00 0.00 0.00 49 1012.3
20260507235552 11 84 4.8 20.9 0.00 0.00 0.00 49 1012.2
20260507235050 11 331 4.8 20.9 0.00 0.00 0.00 48 1012.2
20260507234551 11 298 4.8 19.3 0.00 0.00 0.00 48 1012.1
20260507234052 11 309 6.4 19.3 0.00 0.00 0.00 48 1012.1
20260507233550 11 295 4.8 14.5 0.00 0.00 0.00 48 1012.1
20260507233051 11 285 4.8 14.5 0.00 0.00 0.00 47 1012.1
20260507232550 11 278 4.8 12.9 0.00 0.00 0.00 48 1012.1
20260507232049 11 294 3.2 12.9 0.00 0.00 0.00 46 1012.1
20260507231550 11 319 6.4 19.3 0.00 0.00 0.00 46 1012.1
20260507231050 11 243 6.4 22.5 0.00 0.00 0.00 48 1012.2
20260507230549 11 250 6.4 22.5 0.00 0.00 0.00 48 1012.2
20260507230106 12 276 6.4 22.5 0.00 0.00 0.00 47 1012.3
20260507225548 12 326 6.4 25.7 0.00 0.00 0.00 48 1012.3
20260507225048 12 303 9.7 25.7 0.00 0.00 0.00 48 1012.3
20260507224549 12 323 8.0 29.0 0.00 0.00 0.00 48 1012.3
20260507224048 12 335 11.3 29.0 0.00 0.00 0.00 47 1012.2
20260507223546 12 281 8.0 22.5 0.00 0.00 0.00 47 1012.3
20260507223132 12 290 8.0 20.9 0.00 0.00 0.00 48 1012.3
20260507222546 12 248 6.4 17.7 0.00 0.00 0.00 47 1012.3
20260507222046 11 323 6.4 20.9 0.00 0.00 0.00 48 1012.4
20260507221546 11 51 6.4 27.4 0.00 0.00 0.00 47 1012.4
20260507221046 11 247 4.8 37.0 0.00 0.00 0.00 47 1012.4
20260507220546 11 337 6.4 37.0 0.00 0.00 0.00 46 1012.4
20260507220044 11 356 11.3 30.6 0.00 0.00 0.00 47 1012.4
20260507215544 11 292 8.0 29.0 0.00 0.00 0.00 46 1012.3
20260507215043 11 300 12.9 46.7 0.00 0.00 0.00 46 1012.3
20260507214552 11 300 14.5 46.7 0.00 0.00 0.00 47 1012.1
20260507214042 12 221 9.7 27.4 0.00 0.00 0.00 49 1012.2
20260507213541 12 305 11.3 27.4 0.00 0.00 0.00 50 1012.1
20260507213042 12 311 6.4 25.7 0.00 0.00 0.00 53 1012.1
20260507212541 12 313 4.8 27.4 0.00 0.00 0.00 54 1012.1
20260507212040 12 264 9.7 43.5 0.00 0.00 0.00 55 1012.1
20260507211542 12 264 8.0 43.5 0.00 0.00 0.00 56 1012.1
20260507211038 11 264 6.4 25.7 0.00 0.00 0.00 56 1012.0
20260507210538 11 325 6.4 22.5 0.00 0.00 0.00 58 1011.8
20260507210042 11 247 6.4 20.9 0.00 0.00 0.00 61 1011.8
20260507205538 11 313 8.0 19.3 0.00 0.00 0.00 61 1011.8
20260507205036 10 301 3.2 14.5 0.00 0.00 0.00 60 1011.7
20260507204541 10 236 6.4 27.4 0.00 0.00 0.00 59 1011.7
20260507204036 11 301 4.8 27.4 0.00 0.00 0.00 60 1011.8
20260507203537 11 245 9.7 25.7 0.00 0.00 0.00 59 1011.8
20260507203040 11 326 8.0 25.7 0.00 0.00 0.00 59 1011.9
20260507202536 11 297 8.0 19.3 0.00 0.00 0.00 60 1011.7
20260507202038 10 286 4.8 14.5 0.00 0.00 0.00 62 1011.7
20260507201540 10 333 3.2 20.9 0.00 0.00 0.00 62 1011.7
20260507201034 11 331 6.4 20.9 0.00 0.00 0.00 60 1011.6
20260507200534 11 9 11.3 27.4 0.00 0.00 0.00 60 1011.5
20260507200049 11 351 8.0 25.7 0.00 0.00 0.00 59 1011.5
20260507195533 11 264 6.4 25.7 0.00 0.03 0.00 60 1011.5
20260507195034 11 336 12.9 25.7 0.00 0.03 0.00 60 1011.6
20260507194532 11 344 8.0 14.5 0.00 0.03 0.00 60 1011.6
20260507194031 11 356 1.6 22.5 0.00 0.03 0.00 60 1011.6
20260507193531 11 303 6.4 22.5 0.00 0.03 0.00 60 1011.8
20260507193042 11 311 4.8 17.7 0.00 0.03 0.00 60 1011.7
20260507192530 11 319 3.2 17.7 0.00 0.03 0.00 60 1011.8
20260507192030 11 312 4.8 12.9 0.00 0.03 0.00 60 1011.8
20260507191529 11 347 6.4 25.7 0.00 0.03 0.00 60 1011.8
20260507191027 11 336 12.9 25.7 0.00 0.03 0.00 59 1011.9
20260507190527 11 356 6.4 20.9 0.00 0.03 0.00 60 1012.0
20260507190035 11 304 6.4 22.5 0.00 0.03 0.00 59 1012.0
20260507185525 11 310 11.3 22.5 0.00 0.03 0.00 58 1012.0
20260507185026 11 359 12.9 20.9 0.00 0.03 0.00 58 1012.0
20260507184525 11 309 4.8 11.3 0.00 0.03 0.00 59 1012.0
20260507184025 11 307 4.8 19.3 0.00 0.03 0.00 59 1012.0
20260507183523 11 322 6.4 19.3 0.00 0.03 0.00 58 1012.0
20260507183035 11 309 6.4 24.1 0.00 0.03 0.00 58 1012.1
20260507182523 11 344 12.9 24.1 0.00 0.03 0.00 57 1012.1
20260507182023 11 6 11.3 24.1 0.00 0.03 0.00 56 1012.1
20260507181523 11 334 3.2 22.5 0.00 0.03 0.00 57 1012.1
20260507181024 11 313 9.7 22.5 0.00 0.03 0.00 55 1012.1
20260507180525 11 1 6.4 16.1 0.00 0.03 0.00 56 1012.1
20260507180022 11 319 4.8 22.5 0.00 0.03 0.00 56 1012.0
20260507175520 11 295 8.0 22.5 0.00 0.03 0.00 55 1012.1
20260507175020 11 334 8.0 22.5 0.00 0.03 0.00 55 1012.0
20260507174520 11 344 11.3 27.4 0.00 0.03 0.00 53 1012.1
20260507174020 12 8 4.8 27.4 0.00 0.03 0.00 55 1012.2
20260507173519 12 15 8.0 20.9 0.00 0.03 0.00 54 1012.1
20260507173020 12 333 6.4 27.4 0.00 0.03 0.00 54 1012.2
20260507172520 12 316 11.3 27.4 0.00 0.03 0.00 55 1012.2
20260507172016 12 345 12.9 24.1 0.00 0.03 0.00 55 1012.3
20260507171515 12 311 4.8 22.5 0.00 0.03 0.00 55 1012.2
20260507171015 12 323 9.7 17.7 0.00 0.03 0.00 56 1012.2
20260507170514 12 8 6.4 14.5 0.00 0.03 0.00 55 1012.3
20260507170013 12 332 8.0 24.1 0.00 0.03 0.00 55 1012.4
20260507165513 12 351 9.7 24.1 0.00 0.03 0.00 59 1012.3
20260507165013 11 345 4.8 14.5 0.00 0.03 0.00 60 1012.3
20260507164512 11 347 4.8 14.5 0.00 0.03 0.00 58 1012.3
20260507164015 11 344 6.4 12.9 0.00 0.03 0.00 60 1012.3
20260507163512 11 345 4.8 19.3 0.00 0.03 0.00 58 1012.4
20260507163012 11 302 9.7 24.1 0.00 0.03 0.00 58 1012.3
20260507162512 12 299 11.3 24.1 0.00 0.03 0.00 59 1012.3
20260507162014 12 264 3.2 11.3 0.00 0.03 0.00 60 1012.4
20260507161512 12 297 3.2 17.7 0.00 0.03 0.00 58 1012.4
20260507161010 12 283 8.0 17.7 0.00 0.03 0.00 57 1012.4
20260507160510 12 315 6.4 20.9 0.00 0.03 0.00 58 1012.4
20260507160013 12 301 8.0 20.9 0.00 0.03 0.00 57 1012.3
20260507155509 12 335 6.4 14.5 0.00 0.03 0.00 54 1012.3
20260507155011 13 342 3.2 16.1 0.00 0.03 0.00 51 1012.3
20260507154508 13 328 9.7 17.7 0.00 0.03 0.00 51 1012.3
20260507154009 13 163 8.0 24.1 0.00 0.03 0.00 55 1012.3
20260507153508 12 235 11.3 24.1 0.00 0.03 0.00 59 1012.3
20260507153005 12 232 9.7 20.9 0.00 0.03 0.00 54 1012.4
20260507152505 12 332 3.2 16.1 0.00 0.03 0.00 54 1012.4
20260507152004 12 236 4.8 17.7 0.00 0.03 0.00 55 1012.4
20260507151504 12 236 4.8 17.7 0.00 0.03 0.00 54 1012.5
20260507151002 12 248 3.2 22.5 0.00 0.03 0.00 55 1012.5
20260507150502 12 278 4.8 22.5 0.00 0.03 0.00 55 1012.5
20260507150110 12 239 6.4 22.5 0.00 0.03 0.00 55 1012.5
20260507145601 12 222 4.8 14.5 0.00 0.03 0.00 56 1012.4
20260507145104 12 303 3.2 16.1 0.00 0.03 0.00 58 1012.4
20260507144559 12 324 4.8 16.1 0.00 0.03 0.00 56 1012.5
20260507144058 12 316 3.2 12.9 0.00 0.03 0.00 56 1012.5
20260507143556 12 250 6.4 12.9 0.00 0.03 0.00 57 1012.4
20260507143100 12 51 3.2 17.7 0.00 0.03 0.00 57 1012.4
20260507142555 12 290 6.4 19.3 0.00 0.03 0.00 56 1012.5
20260507142053 12 208 6.4 19.3 0.00 0.03 0.00 60 1012.5
20260507141553 11 223 6.4 17.7 0.00 0.03 0.00 61 1012.6
20260507141050 11 8 3.2 9.7 0.00 0.03 0.00 62 1012.6
20260507140550 11 112 3.2 17.7 0.00 0.03 0.00 64 1012.7
20260507140049 11 344 9.7 17.7 0.00 0.03 0.00 66 1012.7
20260507135551 10 248 6.4 14.5 0.00 0.03 0.00 66 1012.9
20260507135047 10 290 3.2 12.9 0.00 0.03 0.00 68 1012.9
20260507134547 10 345 3.2 11.3 0.00 0.03 0.00 68 1012.9
20260507134043 10 20 3.2 9.7 0.00 0.03 0.00 68 1012.9
20260507133543 10 319 3.2 14.5 0.00 0.03 0.00 69 1013.0
20260507133042 10 236 3.2 16.1 0.00 0.03 0.00 71 1013.0
20260507132540 9 236 8.0 16.1 0.00 0.03 0.00 70 1013.1
20260507132038 9 271 8.0 16.1 0.00 0.03 0.00 70 1013.1
20260507131538 8 198 1.6 17.7 0.00 0.03 0.00 70 1013.1
20260507131037 8 257 8.0 17.7 0.00 0.03 0.00 70 1013.1
20260507130635 8 255 6.4 16.1 0.00 0.03 0.00 70 1013.1
20260507130054 8 208 3.2 11.3 0.00 0.03 0.00 70 1013.1
20260507125535 8 130 1.6 9.7 0.00 0.03 0.00 69 1013.1
20260507125033 8 236 3.2 12.9 0.00 0.03 0.00 69 1013.1
20260507124533 8 250 4.8 17.7 0.00 0.03 0.00 70 1013.1
20260507124032 8 239 6.4 17.7 0.00 0.03 0.00 71 1013.1
20260507123531 8 250 9.7 17.7 0.00 0.03 0.00 72 1013.2
20260507123033 7 241 4.8 17.7 0.00 0.03 0.00 72 1013.0
20260507122529 7 239 6.4 19.3 0.00 0.03 0.00 73 1013.1
20260507122028 7 190 12.9 19.3 0.00 0.03 0.00 73 1013.0
20260507121527 7 231 11.3 19.3 0.00 0.03 0.00 73 1012.9
20260507121025 7 309 4.8 14.5 0.00 0.03 0.00 73 1013.0
20260507120533 7 240 6.4 17.7 0.00 0.03 0.00 74 1013.0
20260507120033 7 211 11.3 20.9 0.00 0.03 0.00 74 1012.7
20260507115522 7 205 9.7 20.9 0.00 0.03 0.00 74 1012.7
20260507115024 6 186 9.7 24.1 0.00 0.03 0.00 74 1012.8
20260507114521 6 243 14.5 24.1 0.00 0.03 0.00 75 1012.8
20260507114020 6 178 9.7 22.5 0.00 0.03 0.00 75 1012.7
20260507113520 6 215 8.0 17.7 0.00 0.03 0.00 75 1012.8
20260507113019 6 239 9.7 17.7 0.00 0.03 0.00 75 1012.8
20260507112518 6 208 8.0 14.5 0.00 0.03 0.00 75 1012.8
20260507112016 6 222 8.0 17.7 0.00 0.03 0.00 75 1012.7
20260507111518 6 217 9.7 17.7 0.00 0.03 0.00 75 1012.7
20260507111015 6 221 9.7 16.1 0.00 0.03 0.00 75 1012.7
20260507110516 6 229 8.0 0.0 0.00 0.00 0.00 75 1012.6
20260507110015 6 220 8.0 14.5 0.00 0.03 0.00 75 1012.6
20260507105513 5 221 4.8 11.3 0.00 0.03 0.00 75 1012.6
20260507105013 5 229 6.4 12.9 0.00 0.03 0.00 74 1012.6
20260507104515 5 210 6.4 12.9 0.00 0.03 0.00 74 1012.6
20260507104013 5 236 6.4 16.1 0.00 0.03 0.00 74 1012.5
20260507103512 5 214 6.4 16.1 0.00 0.03 0.00 74 1012.4
20260507103011 6 211 6.4 14.5 0.00 0.03 0.00 74 1012.4
20260507102510 6 208 6.4 14.5 0.00 0.03 0.00 74 1012.4
20260507102010 6 192 8.0 14.5 0.00 0.03 0.00 74 1012.3
20260507101510 6 190 6.4 14.5 0.00 0.03 0.00 74 1012.4
20260507101014 6 186 6.4 14.5 0.00 0.03 0.00 73 1012.4
20260507100509 6 212 6.4 12.9 0.00 0.03 0.00 73 1012.4
20260507100009 6 203 6.4 12.9 0.00 0.03 0.00 73 1012.4
20260507095509 6 190 6.4 11.3 0.00 0.10 0.00 73 1012.4
20260507095009 6 221 6.4 12.9 0.00 0.10 0.00 73 1012.3
20260507094508 6 213 6.4 12.9 0.00 0.10 0.00 72 1012.4
20260507094010 6 238 6.4 14.5 0.00 0.10 0.00 72 1012.4
20260507093508 6 250 6.4 20.9 0.00 0.10 0.00 72 1012.4
20260507093008 6 257 8.0 20.9 0.00 0.10 0.00 72 1012.4
20260507092512 6 218 8.0 17.7 0.00 0.10 0.00 72 1012.4
20260507092012 6 228 8.0 17.7 0.00 0.10 0.00 72 1012.3
20260507091508 6 218 8.0 17.7 0.00 0.10 0.00 72 1012.3
20260507091005 6 199 8.0 17.7 0.00 0.10 0.00 72 1012.4
20260507090510 6 235 8.0 19.3 0.00 0.10 0.00 72 1012.5
20260507090006 6 202 11.3 19.3 0.00 0.10 0.00 72 1012.5
20260507085505 6 213 9.7 17.7 0.00 0.25 0.00 72 1012.4
20260507085005 6 179 9.7 17.7 0.00 0.25 0.00 72 1012.4
20260507084505 6 227 9.7 17.7 0.00 0.25 0.00 72 1012.4
20260507084004 6 223 8.0 22.5 0.00 0.25 0.00 72 1012.4
20260507083507 6 231 9.7 22.5 0.00 0.25 0.00 72 1012.5
20260507083004 6 198 8.0 19.3 0.00 0.25 0.00 72 1012.5
20260507082501 6 206 9.7 19.3 0.00 0.25 0.00 72 1012.6
20260507082001 6 245 6.4 16.1 0.00 0.25 0.00 72 1012.6
20260507081501 6 259 9.7 17.7 0.00 0.25 0.00 72 1012.6
20260507081100 6 196 6.4 17.7 0.00 0.25 0.00 72 1012.7
20260507080600 6 211 4.8 14.5 0.00 0.25 0.00 72 1012.6
20260507080059 6 217 6.4 14.5 0.00 0.25 0.00 72 1012.6
20260507075558 6 233 6.4 12.9 0.00 0.41 0.00 72 1012.6